Overview Statistics Trail Chart Weather Telemetry Raw packets
 

This is the latest recevied weather packets stored in our database for station/object K5OLV. If no packets are shown the sender has not sent any weather packets the latest 10 day(s).

<< 111 112 113 114 >>
Time Temp. Humidity Pressure Rain* Wind** Luminosity Snow
1787768579 30° C 59% 1015.6 hPa 0 mm - 668 W/m² -
1787768275 28.89° C 63% 1015.9 hPa 0 mm - 656 W/m² -
1787767971 29.44° C 61% 1015.6 hPa 0 mm - 357 W/m² -
1787767665 29.44° C 62% 1016 hPa 0 mm - 402 W/m² -
1787767364 28.89° C 63% 1016.1 hPa 0 mm - 428 W/m² -
1787767064 28.89° C 59% 1016.3 hPa 0 mm - 406 W/m² -
1787766762 29.44° C 57% 1016.2 hPa 0 mm - 726 W/m² -
1787766456 28.33° C 64% 1016.2 hPa 0 mm - 461 W/m² -
1787766151 28.33° C 64% 1016.2 hPa 0 mm - 553 W/m² -
1787765846 28.89° C 64% 1016.4 hPa 0 mm - 525 W/m² -
1787765543 28.33° C 66% 1016.4 hPa 0 mm - 312 W/m² -
1787765243 27.78° C 71% 1016.5 hPa 0 mm - 673 W/m² -
1787764942 27.78° C 70% 1016.5 hPa 0 mm - 213 W/m² -
1787764638 27.22° C 72% 1016.7 hPa 0 mm - 251 W/m² -
1787764338 27.78° C 70% 1016.6 hPa 0 mm - 314 W/m² -
1787764034 28.33° C 72% 1016.4 hPa 0 mm - 371 W/m² -
1787763729 28.33° C 68% 1016.4 hPa 0 mm - 791 W/m² -
1787763424 27.22° C 73% 1016.4 hPa 0 mm - 382 W/m² -
1787763124 26.67° C 75% 1016.4 hPa 0 mm - 265 W/m² -
1787762818 26.67° C 76% 1016.4 hPa 0 mm - 272 W/m² -
1787762513 26.67° C 74% 1016.4 hPa 0 mm - 355 W/m² -

* Rain latest hour (hover to see other rain measurements)
** Current wind speed in m/s (hover to see current wind gust speed)